MCF1TR LZKZ-LHBP

Flight info

Callsign MCF1TR
Flight time 0h 28m
Altitude 22000
Route LATOF DCT EDEMU
Aircraft A320/M-SDE3FGHIRWY/LB1

Departure

Time 2026-04-23 19:17
Airport Košice International Airport (LZKZ)

Arrival

Time 2026-04-23 19:45
Airport Budapest Liszt Ferenc International Airport (LHBP)
Time Latitude Longitude Altitude Speed Heading
2026-04-23 18:42 48.67330 21.23845 753 ft 0 kts 233°
2026-04-23 19:06 48.67329 21.23845 757 ft 1 kts 226°
2026-04-23 19:06 48.67310 21.23888 754 ft 13 kts 104°
2026-04-23 19:06 48.67292 21.24004 757 ft 10 kts 103°
2026-04-23 19:07 48.67270 21.24152 757 ft 21 kts 103°
2026-04-23 19:07 48.67243 21.24325 755 ft 14 kts 103°
2026-04-23 19:07 48.67224 21.24455 758 ft 13 kts 103°
2026-04-23 19:07 48.67199 21.24608 755 ft 15 kts 103°
2026-04-23 19:08 48.67163 21.24748 754 ft 14 kts 149°
2026-04-23 19:08 48.67071 21.24731 757 ft 17 kts 194°
2026-04-23 19:08 48.66931 21.24683 755 ft 21 kts 193°
2026-04-23 19:08 48.66796 21.24636 756 ft 19 kts 193°
2026-04-23 19:09 48.66746 21.24620 757 ft 0 kts 192°
2026-04-23 19:09 48.66722 21.24612 757 ft 11 kts 192°
2026-04-23 19:09 48.66617 21.24574 755 ft 16 kts 193°
2026-04-23 19:10 48.66515 21.24538 757 ft 15 kts 192°
2026-04-23 19:10 48.66413 21.24504 757 ft 15 kts 193°
2026-04-23 19:10 48.66277 21.24454 755 ft 21 kts 193°
2026-04-23 19:10 48.66137 21.24405 757 ft 20 kts 193°
2026-04-23 19:11 48.66008 21.24359 755 ft 18 kts 193°
2026-04-23 19:11 48.65899 21.24320 756 ft 5 kts 193°
2026-04-23 19:11 48.65898 21.24320 756 ft 0 kts 194°
2026-04-23 19:11 48.65888 21.24316 757 ft 8 kts 194°
2026-04-23 19:12 48.65833 21.24296 755 ft 13 kts 193°
2026-04-23 19:12 48.65712 21.24255 755 ft 19 kts 193°
2026-04-23 19:12 48.65558 21.24202 757 ft 23 kts 193°
2026-04-23 19:12 48.65403 21.24149 756 ft 23 kts 193°
2026-04-23 19:13 48.65254 21.24097 757 ft 21 kts 193°
2026-04-23 19:13 48.65114 21.24048 757 ft 20 kts 193°
2026-04-23 19:13 48.64986 21.24004 757 ft 17 kts 192°
2026-04-23 19:13 48.64905 21.23898 755 ft 15 kts 250°
2026-04-23 19:14 48.64919 21.23753 755 ft 15 kts 300°
2026-04-23 19:14 48.65007 21.23669 756 ft 15 kts 355°
2026-04-23 19:14 48.65044 21.23679 758 ft 0 kts 12°
2026-04-23 19:16 48.65052 21.23681 759 ft 7 kts 12°
2026-04-23 19:16 48.65321 21.23775 755 ft 77 kts 13°
2026-04-23 19:17 48.67080 21.24394 1202 ft 151 kts 12°
2026-04-23 19:17 48.68098 21.24753 1960 ft 148 kts 10°
2026-04-23 19:17 48.69065 21.25081 2879 ft 137 kts
2026-04-23 19:17 48.69966 21.25386 3668 ft 133 kts
2026-04-23 19:18 48.70925 21.25715 4086 ft 152 kts
2026-04-23 19:18 48.72027 21.26094 4427 ft 173 kts
2026-04-23 19:18 48.73261 21.26523 4940 ft 187 kts
2026-04-23 19:18 48.74537 21.26974 5800 ft 189 kts
2026-04-23 19:19 48.77137 21.27142 7367 ft 197 kts 331°
2026-04-23 19:19 48.78070 21.25487 7851 ft 228 kts 299°
2026-04-23 19:20 48.79005 21.20322 8966 ft 272 kts 287°
2026-04-23 19:20 48.79371 21.17469 9844 ft 279 kts 287°
2026-04-23 19:20 48.79749 21.14523 10430 ft 295 kts 287°
2026-04-23 19:20 48.80127 21.11339 10747 ft 322 kts 279°
2026-04-23 19:21 48.79904 21.07794 11015 ft 356 kts 258°
2026-04-23 19:21 48.77294 21.00825 11546 ft 410 kts 226°
2026-04-23 19:21 48.74895 20.98381 12179 ft 422 kts 208°
2026-04-23 19:22 48.72288 20.96304 12819 ft 424 kts 217°
2026-04-23 19:22 48.70045 20.93420 13465 ft 423 kts 226°
2026-04-23 19:22 48.65745 20.87290 14787 ft 428 kts 226°
2026-04-23 19:23 48.63596 20.84223 15337 ft 432 kts 226°
2026-04-23 19:23 48.61378 20.81060 15929 ft 434 kts 226°
2026-04-23 19:23 48.59173 20.77922 16489 ft 437 kts 226°
2026-04-23 19:24 48.54692 20.71565 17515 ft 446 kts 226°
2026-04-23 19:24 48.52420 20.68351 18022 ft 450 kts 226°
2026-04-23 19:24 48.47812 20.61842 18940 ft 457 kts 226°
2026-04-23 19:25 48.43125 20.55252 19780 ft 465 kts 226°
2026-04-23 19:25 48.38388 20.48604 20577 ft 472 kts 226°
2026-04-23 19:26 48.33560 20.41835 21325 ft 478 kts 226°
2026-04-23 19:26 48.31121 20.38417 21595 ft 480 kts 226°
2026-04-23 19:27 48.26210 20.31565 21975 ft 487 kts 225°
2026-04-23 19:27 48.18663 20.21086 21989 ft 495 kts 225°
2026-04-23 19:28 48.13607 20.14089 21981 ft 494 kts 225°
2026-04-23 19:28 48.08568 20.07126 21980 ft 494 kts 225°
2026-04-23 19:29 48.06038 20.03634 21981 ft 494 kts 225°
2026-04-23 19:29 48.00992 19.96684 21980 ft 490 kts 225°
2026-04-23 19:30 47.96027 19.89877 21315 ft 481 kts 225°
2026-04-23 19:30 47.93556 19.86499 20373 ft 477 kts 225°
2026-04-23 19:30 47.88825 19.80048 18039 ft 448 kts 225°
2026-04-23 19:31 47.86557 19.76955 16702 ft 436 kts 225°
2026-04-23 19:31 47.84336 19.73925 15338 ft 429 kts 225°
2026-04-23 19:31 47.82150 19.70945 13985 ft 423 kts 225°
2026-04-23 19:31 47.79995 19.68011 12564 ft 417 kts 225°
2026-04-23 19:32 47.77852 19.65096 11575 ft 417 kts 225°
2026-04-23 19:32 47.75724 19.62207 11218 ft 414 kts 225°
2026-04-23 19:32 47.73625 19.59366 10962 ft 400 kts 225°
2026-04-23 19:32 47.71599 19.56636 10712 ft 385 kts 225°
2026-04-23 19:33 47.69654 19.54016 10473 ft 371 kts 225°
2026-04-23 19:33 47.67779 19.51492 10239 ft 358 kts 225°
2026-04-23 19:33 47.64205 19.46682 9743 ft 335 kts 225°
2026-04-23 19:34 47.62543 19.44447 9569 ft 311 kts 225°
2026-04-23 19:34 47.60999 19.42371 9436 ft 289 kts 225°
2026-04-23 19:34 47.58089 19.38454 9179 ft 282 kts 225°
2026-04-23 19:35 47.57129 19.37162 9098 ft 280 kts 225°
2026-04-23 19:35 47.55707 19.35254 8965 ft 279 kts 224°
2026-04-23 19:35 47.54033 19.33801 8834 ft 282 kts 197°
2026-04-23 19:35 47.52090 19.33620 8709 ft 282 kts 167°
2026-04-23 19:36 47.50328 19.34759 8584 ft 276 kts 139°
2026-04-23 19:36 47.48567 19.37435 8406 ft 274 kts 128°
2026-04-23 19:36 47.47700 19.38837 8322 ft 274 kts 129°
2026-04-23 19:36 47.46415 19.40913 8192 ft 273 kts 129°
2026-04-23 19:37 47.45129 19.42989 7827 ft 276 kts 129°
2026-04-23 19:37 47.43836 19.45072 7483 ft 273 kts 129°
2026-04-23 19:37 47.42546 19.47148 7073 ft 273 kts 129°
2026-04-23 19:37 47.41274 19.49192 6644 ft 268 kts 129°
2026-04-23 19:38 47.40025 19.51198 6142 ft 261 kts 130°
2026-04-23 19:38 47.38803 19.53158 5532 ft 259 kts 129°
2026-04-23 19:38 47.37524 19.55031 5009 ft 261 kts 142°
2026-04-23 19:38 47.35822 19.56016 4540 ft 269 kts 175°
2026-04-23 19:39 47.34038 19.55635 4422 ft 253 kts 206°
2026-04-23 19:39 47.32640 19.54244 4353 ft 236 kts 227°
2026-04-23 19:39 47.31526 19.52542 4072 ft 227 kts 244°
2026-04-23 19:39 47.30989 19.50494 3877 ft 203 kts 270°
2026-04-23 19:40 47.31019 19.48571 3750 ft 177 kts 290°
2026-04-23 19:40 47.31429 19.47004 3575 ft 153 kts 308°
2026-04-23 19:40 47.32040 19.45869 3410 ft 134 kts 319°
2026-04-23 19:40 47.32661 19.44875 3235 ft 130 kts 319°
2026-04-23 19:41 47.33269 19.43901 3066 ft 128 kts 319°
2026-04-23 19:41 47.33872 19.42936 2882 ft 128 kts 319°
2026-04-23 19:41 47.34472 19.41973 2713 ft 127 kts 319°
2026-04-23 19:41 47.35070 19.41014 2531 ft 127 kts 319°
2026-04-23 19:42 47.35663 19.40061 2375 ft 126 kts 319°
2026-04-23 19:42 47.36257 19.39108 2208 ft 126 kts 319°
2026-04-23 19:42 47.36847 19.38159 2034 ft 126 kts 319°
2026-04-23 19:42 47.37438 19.37209 1871 ft 125 kts 319°
2026-04-23 19:43 47.38017 19.36278 1704 ft 125 kts 319°
2026-04-23 19:43 47.38605 19.35331 1530 ft 126 kts 317°
2026-04-23 19:43 47.39199 19.34375 1358 ft 126 kts 318°
2026-04-23 19:43 47.39793 19.33419 1181 ft 127 kts 315°
2026-04-23 19:44 47.40388 19.32460 1016 ft 126 kts 313°
2026-04-23 19:44 47.40980 19.31507 840 ft 125 kts 313°
2026-04-23 19:44 47.41574 19.30551 682 ft 126 kts 312°
2026-04-23 19:44 47.42165 19.29599 534 ft 126 kts 313°
2026-04-23 19:45 47.42741 19.28668 448 ft 110 kts 312°
2026-04-23 19:45 47.43063 19.28150 459 ft 41 kts 312°
2026-04-23 19:45 47.43240 19.27862 462 ft 36 kts 312°
2026-04-23 19:45 47.43348 19.27569 463 ft 30 kts 287°
2026-04-23 19:46 47.43389 19.27288 458 ft 25 kts 283°
2026-04-23 19:46 47.43418 19.27096 458 ft 18 kts 284°
2026-04-23 19:46 47.43472 19.26927 458 ft 19 kts 312°
2026-04-23 19:46 47.43566 19.26776 458 ft 21 kts 312°
2026-04-23 19:47 47.43668 19.26613 458 ft 22 kts 313°
2026-04-23 19:47 47.43752 19.26455 457 ft 16 kts 279°
2026-04-23 19:47 47.43678 19.26350 458 ft 15 kts 176°
2026-04-23 19:47 47.43608 19.26443 456 ft 13 kts 133°
2026-04-23 19:48 47.43553 19.26520 458 ft 8 kts 162°
2026-04-23 19:48 47.43513 19.26481 458 ft 5 kts 223°
2026-04-23 19:48 47.43508 19.26474 458 ft 0 kts 223°